W8BYH Weather Reports


Display with metric or nautical units.
time (UTC)temp
F
wind
direction
speed
MPH
gust
MPH
rain 1hr
in
rain 24hr
in
rain mn
in
humidity
%
barometer
mb
20260506101552 60 0 0.0 0.0 0.00 0.00 0.00 87 1013.9
20260506100046 60 0 0.0 0.0 0.00 0.00 0.00 86 1013.7
20260506094547 60 0 0.0 0.0 0.00 0.00 0.00 85 1014.0
20260506093036 59 0 0.0 0.0 0.00 0.00 0.00 84 1013.8
20260506091546 60 0 0.0 0.0 0.00 0.00 0.00 84 1013.6
20260506090045 60 0 0.0 0.0 0.00 0.00 0.00 83 1013.7
20260506084539 59 0 0.0 0.0 0.00 0.00 0.00 83 1013.7
20260506083041 59 0 0.0 0.0 0.00 0.00 0.00 83 1013.8
20260506081536 59 0 0.0 0.0 0.00 0.00 0.00 83 1013.7
20260506073046 59 0 0.0 0.0 0.00 0.00 0.00 80 1013.9
20260506071555 59 0 0.0 0.0 0.00 0.00 0.00 78 1014.2
20260506061544 60 0 0.0 0.0 0.00 0.00 0.00 79 1014.4
20260506044542 61 0 0.0 0.0 0.00 0.00 0.00 77 1014.6
20260506043037 61 0 0.0 0.0 0.00 0.00 0.00 76 1014.5
20260506041557 61 0 0.0 0.0 0.00 0.00 0.00 74 1014.1
20260506040045 62 0 0.0 0.0 0.00 0.00 0.00 74 1014.1
20260506034545 62 0 0.0 0.0 0.00 0.00 0.00 72 1014.5
20260506033041 63 0 0.0 0.0 0.00 0.00 0.00 72 1014.4
20260506031536 63 0 0.0 0.0 0.00 0.00 0.00 70 1014.5
20260506030042 64 0 0.0 0.0 0.00 0.00 0.00 70 1014.3
20260506024547 64 0 0.0 0.0 0.00 0.00 0.00 67 1014.3
20260506023040 65 0 0.0 0.0 0.00 0.00 0.00 67 1014.3
20260506021541 65 0 0.0 0.0 0.00 0.00 0.00 66 1014.3
20260506020037 66 0 0.0 0.0 0.00 0.00 0.00 64 1014.2
20260506014551 66 0 0.0 0.0 0.00 0.00 0.00 63 1014.0
20260506013044 67 0 0.0 0.0 0.00 0.00 0.00 62 1014.2
20260506011543 68 0 0.0 0.0 0.00 0.00 0.00 60 1014.0
20260506010040 69 0 0.0 0.0 0.00 0.00 0.00 58 1013.9
20260506004547 71 0 0.0 0.0 0.00 0.00 0.00 56 1014.1
20260506003046 72 0 0.0 0.0 0.00 0.00 0.00 54 1014.1
20260506001606 72 0 0.0 0.0 0.00 0.00 0.00 51 1013.9
20260506000048 73 0 0.0 0.0 0.00 0.00 0.00 51 1013.8
20260505234549 74 0 0.0 1.0 0.00 0.00 0.00 48 1013.8
20260505233049 75 0 0.0 0.0 0.00 0.00 0.00 47 1013.8
20260505231552 75 0 0.0 1.0 0.00 0.00 0.00 45 1013.8
20260505230045 76 0 0.0 2.0 0.00 0.00 0.00 44 1013.7
20260505224547 76 0 0.0 3.0 0.00 0.00 0.00 42 1013.5
20260505223043 76 0 0.0 3.0 0.00 0.00 0.00 42 1013.5
20260505221550 77 98 0.0 3.0 0.00 0.00 0.00 43 1013.3
20260505220047 77 30 0.0 3.0 0.00 0.00 0.00 42 1013.4
20260505214557 77 355 0.0 2.0 0.00 0.00 0.00 42 1013.5
20260505213053 77 38 0.0 4.0 0.00 0.00 0.00 44 1013.5
20260505211547 77 0 0.0 2.0 0.00 0.00 0.00 43 1013.6
20260505210049 77 0 0.0 2.0 0.00 0.00 0.00 46 1013.6
20260505204544 77 0 0.0 3.0 0.00 0.00 0.00 44 1013.8
20260505203047 77 0 0.0 3.0 0.00 0.00 0.00 45 1014.1
20260505201549 77 234 0.0 4.0 0.00 0.00 0.00 45 1014.3
20260505200043 77 21 0.0 2.0 0.00 0.00 0.00 44 1014.4
20260505194543 77 0 0.0 4.0 0.00 0.00 0.00 43 1014.7
20260505193049 77 0 0.0 2.0 0.00 0.00 0.00 42 1014.8
20260505191550 77 0 0.0 3.0 0.00 0.00 0.00 49 1015.0
20260505190048 77 0 0.0 3.0 0.00 0.00 0.00 44 1015.2
20260505184537 77 0 1.0 4.0 0.00 0.00 0.00 47 1015.4
20260505183051 77 0 0.0 5.0 0.00 0.00 0.00 46 1015.6
20260505181545 78 49 1.0 4.0 0.00 0.00 0.00 46 1015.8
20260505180046 78 0 1.0 4.0 0.00 0.00 0.00 44 1016.0
20260505174541 78 278 0.0 4.0 0.00 0.00 0.00 46 1016.5
20260505173046 77 50 0.0 4.0 0.00 0.00 0.00 46 1016.4
20260505171545 78 0 1.0 4.0 0.00 0.00 0.00 45 1016.5
20260505170047 78 275 1.0 4.0 0.00 0.00 0.00 46 1016.6
20260505164546 77 50 0.0 3.0 0.00 0.00 0.00 46 1016.7
20260505163046 78 114 0.0 4.0 0.00 0.00 0.00 48 1016.7
20260505161545 77 329 0.0 3.0 0.00 0.00 0.00 48 1016.7
20260505153059 75 0 0.0 3.0 0.00 0.00 0.00 53 1017.4
20260505151545 75 0 0.0 1.0 0.00 0.00 0.00 56 1017.2
20260505124545 52 0 0.0 0.0 0.00 0.00 0.00 93 1015.9
20260505123105 51 0 0.0 0.0 0.00 0.00 0.00 93 1015.8
20260505121541 50 0 0.0 0.0 0.00 0.00 0.00 92 1015.8
20260505120052 49 0 0.0 0.0 0.00 0.00 0.00 92 1015.8
20260505114553 49 0 0.0 0.0 0.00 0.00 0.00 92 1015.3
20260505113042 48 0 0.0 0.0 0.00 0.00 0.00 92 1015.3
20260505111540 48 0 0.0 0.0 0.00 0.00 0.00 91 1015.3